Oakland, MD

1:42 PM EDT on April 30, 2017 (GMT -0400)
Oakland

Weather History for K2G4 - March, 2013

Change the Weather History Date:

Sunday, March 31, 2013

  Actual Average (KMGW) Record (KMGW)
Temperature  
Mean Temperature 38 °F -  
Max Temperature 41 °F 57 °F 79 °F (1986)
Min Temperature 35 °F 38 °F 18 °F (1965)
Degree Days  
Heating Degree Days 27    
Moisture  
Dew Point 33 °F    
Average Humidity 84    
Maximum Humidity 100    
Minimum Humidity 45    
Precipitation  
Precipitation 0.00 in - - ()
Sea Level Pressure  
Sea Level Pressure 29.82 in    
Wind  
Wind Speed 10 mph (South)    
Max Wind Speed 15 mph    
Max Gust Speed 24 mph    
Visibility 7 miles    
Events Fog    
Averages and records for this station are not official NWS values.
T = Trace of Precipitation, MM = Missing Value Source: NWS Daily Summary

Daily Weather History Graph

Daily Weather History Graph

Search for Another Location

Airport or City:

Trip Planner

Search our weather history database for the weather conditions in past years. The results will help you decide how hot, cold, wet, or windy it might be!

Date:

Astronomy

Mar. 31, 2013 Rise Set
Actual Time 7:02 AM EDT 7:40 PM EDT
Civil Twilight 6:35 AM EDT 8:07 PM EDT
Nautical Twilight 6:03 AM EDT 8:39 PM EDT
Astronomical Twilight 5:30 AM EDT 9:12 PM EDT
Moon No Moon Rise 9:50 AM EDT (3/31)
Length of Visible Light 13h 32m
Length of Day
12h 37m
Waning Gibbous, 78% of the Moon is Illuminated
Mar 31
Waning Gibbous
Apr 3
Last Quarter
Apr 10
New
Apr 18
First Quarter
Apr 25
Full

Hourly Weather History & Observations

Time (EDT) Temp. Windchill Dew Point Humidity Pressure Visibility Wind Dir Wind Speed Gust Speed Precip Events Conditions
12:10 AM 37.4 °F 30.3 °F 19.4 °F 48% 30.02 in 10.0 mi SE 10.4 mph - N/A   Clear
12:30 AM 35.6 °F 28.0 °F 19.4 °F 52% 30.02 in 10.0 mi SE 10.4 mph - N/A   Clear
12:50 AM 35.6 °F 27.5 °F 19.4 °F 52% 30.01 in 10.0 mi SE 11.5 mph - N/A   Clear
1:10 AM 35.6 °F 28.0 °F 19.4 °F 52% 30.01 in 10.0 mi SE 10.4 mph - N/A   Clear
1:30 AM 35.6 °F 27.5 °F 19.4 °F 52% 30.00 in 10.0 mi SE 11.5 mph - N/A   Clear
1:50 AM 35.6 °F 28.0 °F 19.4 °F 52% 29.99 in 10.0 mi SE 10.4 mph - N/A   Clear
2:10 AM 35.6 °F 28.0 °F 17.6 °F 48% 29.98 in 10.0 mi SE 10.4 mph - N/A   Clear
2:30 AM 35.6 °F 27.5 °F 17.6 °F 48% 29.97 in 10.0 mi SE 11.5 mph - N/A   Clear
2:50 AM 37.4 °F 30.3 °F 17.6 °F 45% 29.96 in 10.0 mi SE 10.4 mph - N/A   Clear
3:10 AM 35.6 °F 28.0 °F 17.6 °F 48% 29.94 in 10.0 mi ESE 10.4 mph - N/A   Clear
3:30 AM 35.6 °F 27.5 °F 17.6 °F 48% 29.93 in 10.0 mi ESE 11.5 mph - N/A   Clear
3:50 AM 35.6 °F 28.0 °F 19.4 °F 52% 29.93 in 10.0 mi SE 10.4 mph - N/A   Clear
4:10 AM 35.6 °F 27.5 °F 19.4 °F 52% 29.92 in 10.0 mi SE 11.5 mph - N/A   Clear
4:30 AM 35.6 °F 27.1 °F 19.4 °F 52% 29.92 in 10.0 mi SE 12.7 mph - N/A   Clear
4:50 AM 35.6 °F 27.5 °F 19.4 °F 52% 29.91 in 10.0 mi SE 11.5 mph - N/A   Scattered Clouds
5:10 AM 35.6 °F 27.5 °F 21.2 °F 56% 29.90 in 10.0 mi SE 11.5 mph - N/A   Mostly Cloudy
5:30 AM 35.6 °F 28.0 °F 21.2 °F 56% 29.90 in 10.0 mi SE 10.4 mph - N/A   Scattered Clouds
5:50 AM 35.6 °F 28.0 °F 21.2 °F 56% 29.89 in 10.0 mi SE 10.4 mph - N/A   Mostly Cloudy
6:10 AM 35.6 °F 27.5 °F 21.2 °F 56% 29.88 in 10.0 mi SE 11.5 mph - N/A   Overcast
6:30 AM 35.6 °F 28.6 °F 21.2 °F 56% 29.88 in 10.0 mi SE 9.2 mph - N/A   Overcast
6:50 AM 37.4 °F 30.8 °F 23.0 °F 56% 29.88 in 10.0 mi SE 9.2 mph - N/A   Overcast
7:10 AM 37.4 °F 31.4 °F 23.0 °F 56% 29.88 in 10.0 mi SSE 8.1 mph - N/A   Overcast
7:35 AM 37.4 °F 30.8 °F 24.8 °F 60% 29.88 in 10.0 mi South 9.2 mph - N/A   Overcast
7:55 AM 37.4 °F 29.3 °F 28.4 °F 70% 29.89 in 10.0 mi SSW 12.7 mph - N/A   Overcast
8:15 AM 37.4 °F 30.8 °F 32.0 °F 81% 29.88 in 10.0 mi South 9.2 mph - N/A   Overcast
8:35 AM 37.4 °F 31.4 °F 33.8 °F 87% 29.88 in 10.0 mi South 8.1 mph - N/A   Overcast
8:55 AM 35.6 °F 30.7 °F 35.6 °F 100% 29.87 in 10.0 mi SSE 5.8 mph - N/A   Overcast
9:15 AM 35.6 °F 29.2 °F 35.6 °F 100% 29.86 in 5.0 mi SSE 8.1 mph - N/A   Overcast
9:35 AM 35.6 °F 28.6 °F 35.6 °F 100% 29.85 in 7.0 mi SSE 9.2 mph - N/A   Overcast
9:55 AM 35.6 °F 27.5 °F 35.6 °F 100% 29.84 in 4.0 mi SSE 11.5 mph - N/A   Overcast
10:15 AM 35.6 °F 28.0 °F 35.6 °F 100% 29.82 in 4.0 mi SSE 10.4 mph - N/A   Overcast
10:35 AM 35.6 °F 27.5 °F 35.6 °F 100% 29.81 in 4.0 mi SE 11.5 mph - N/A   Overcast
10:55 AM 37.4 °F 29.8 °F 37.4 °F 100% 29.80 in 5.0 mi SSE 11.5 mph 17.3 mph N/A   Overcast
11:15 AM 37.4 °F 28.9 °F 37.4 °F 100% 29.80 in 5.0 mi SSE 13.8 mph 19.6 mph N/A   Overcast
11:35 AM 37.4 °F 29.3 °F 37.4 °F 100% 29.79 in 5.0 mi SSE 12.7 mph 18.4 mph N/A   Overcast
11:55 AM 37.4 °F 29.3 °F 37.4 °F 100% 29.78 in 4.0 mi SSE 12.7 mph - N/A   Overcast
12:15 PM 37.4 °F 29.3 °F 37.4 °F 100% 29.77 in 2.5 mi SE 12.7 mph - N/A   Overcast
12:35 PM 37.4 °F 30.3 °F 37.4 °F 100% 29.76 in 1.5 mi SE 10.4 mph - N/A   Overcast
12:55 PM 37.4 °F 30.3 °F 37.4 °F 100% 29.75 in 1.5 mi SSE 10.4 mph - N/A   Overcast
1:15 PM 37.4 °F 30.3 °F 37.4 °F 100% 29.74 in 1.2 mi SSE 10.4 mph - N/A   Overcast
1:35 PM 37.4 °F 31.4 °F 37.4 °F 100% 29.74 in 0.2 mi SSE 8.1 mph - N/A Fog Fog
1:55 PM 37.4 °F 31.4 °F 37.4 °F 100% 29.74 in 0.2 mi SSE 8.1 mph - N/A Fog Fog
2:15 PM 37.4 °F 31.4 °F 37.4 °F 100% 29.74 in 0.2 mi South 8.1 mph - N/A Fog Fog
2:35 PM 39.2 °F 33.0 °F 39.2 °F 100% 29.73 in 0.2 mi SSW 9.2 mph - N/A Fog Fog
2:55 PM 41.0 °F 35.8 °F 41.0 °F 100% 29.73 in 0.2 mi WSW 8.1 mph - N/A Fog Fog
3:15 PM 41.0 °F 35.2 °F 41.0 °F 100% 29.72 in 0.2 mi WSW 9.2 mph - N/A Fog Fog
3:35 PM 41.0 °F 33.5 °F 41.0 °F 100% 29.73 in 0.2 mi WSW 13.8 mph 23.0 mph N/A Fog Fog
3:55 PM 41.0 °F 35.8 °F 41.0 °F 100% 29.71 in 4.0 mi West 8.1 mph 16.1 mph N/A   Overcast
4:15 PM 41.0 °F 35.2 °F 41.0 °F 100% 29.72 in 3.0 mi West 9.2 mph 18.4 mph N/A   Overcast
4:35 PM 41.0 °F 35.8 °F 41.0 °F 100% 29.72 in 4.0 mi West 8.1 mph 20.7 mph N/A   Overcast
4:55 PM 41.0 °F 35.8 °F 41.0 °F 100% 29.72 in 2.0 mi West 8.1 mph 20.7 mph N/A   Overcast
5:15 PM 41.0 °F 35.2 °F 41.0 °F 100% 29.72 in 2.5 mi West 9.2 mph 16.1 mph N/A   Overcast
5:35 PM 41.0 °F 35.8 °F 41.0 °F 100% 29.72 in 4.0 mi West 8.1 mph - N/A   Overcast
5:55 PM 41.0 °F 33.9 °F 41.0 °F 100% 29.73 in 4.0 mi West 12.7 mph 24.2 mph N/A   Overcast
6:15 PM 41.0 °F 35.8 °F 41.0 °F 100% 29.73 in 5.0 mi West 8.1 mph 17.3 mph N/A   Overcast
6:35 PM 41.0 °F 34.7 °F 41.0 °F 100% 29.74 in 7.0 mi West 10.4 mph 18.4 mph N/A   Overcast
6:55 PM 41.0 °F 34.7 °F 41.0 °F 100% 29.74 in 7.0 mi WSW 10.4 mph 20.7 mph N/A   Overcast
7:15 PM 41.0 °F 35.2 °F 41.0 °F 100% 29.74 in 10.0 mi West 9.2 mph - N/A   Overcast
7:35 PM 41.0 °F 34.7 °F 41.0 °F 100% 29.74 in 10.0 mi West 10.4 mph 18.4 mph N/A   Overcast
7:55 PM 41.0 °F 36.4 °F 41.0 °F 100% 29.74 in 10.0 mi West 6.9 mph - N/A   Overcast
8:15 PM 41.0 °F 34.7 °F 41.0 °F 100% 29.75 in 10.0 mi West 10.4 mph 17.3 mph N/A   Overcast
8:35 PM 41.0 °F 36.4 °F 41.0 °F 100% 29.75 in 7.0 mi West 6.9 mph 17.3 mph N/A   Overcast
8:55 PM 39.2 °F 34.2 °F 39.2 °F 100% 29.76 in 7.0 mi West 6.9 mph - N/A   Overcast
9:15 PM 41.0 °F 33.9 °F 41.0 °F 100% 29.77 in 7.0 mi WSW 12.7 mph 18.4 mph N/A   Overcast
9:35 PM 41.0 °F 34.7 °F 41.0 °F 100% 29.77 in 7.0 mi WSW 10.4 mph 18.4 mph N/A   Overcast
9:55 PM 39.2 °F 33.0 °F 39.2 °F 100% 29.78 in 7.0 mi WSW 9.2 mph 20.7 mph N/A   Overcast
10:15 PM 39.2 °F 31.6 °F 39.2 °F 100% 29.78 in 10.0 mi West 12.7 mph 19.6 mph N/A   Mostly Cloudy
10:35 PM 39.2 °F 30.8 °F 39.2 °F 100% 29.77 in 10.0 mi West 15.0 mph 23.0 mph N/A   Overcast
11:15 PM 39.2 °F 32.0 °F 39.2 °F 100% 29.76 in 10.0 mi West 11.5 mph 20.7 mph N/A   Overcast
11:35 PM 37.4 °F 28.5 °F 37.4 °F 100% 29.74 in 10.0 mi West 15.0 mph 24.2 mph N/A   Mostly Cloudy
11:55 PM 37.4 °F 28.5 °F 37.4 °F 100% 29.74 in 10.0 mi West 15.0 mph 18.4 mph N/A   Mostly Cloudy